Location: B�rgermoos
(47.6500°N, 9.0667°E)
Time: 04:18:14
(UTC+00:00)

Cosmos 2195 Rocket - Pass Details

Date: 18 September 2020
Orbit: 948 x 994 km, 82.9° (Epoch: 29 October)

Event Time Altitude Azimuth Distance (km) Brightness Sun altitude
Rises 19:52:02 0° 350° (N) 3,703 8.1 -23.7°
Reaches altitude 10° 19:54:34 10° 350° (N) 2,745 7.4 -24.0°
Maximum altitude 20:00:52 85° 264° (W) 982 4.4 -24.9°
Enters shadow 20:03:08 42° 178° (S) 1,345 4.9 -25.3°
